Вернуться в каталог

TELECOM 1A

АктивенСвязьGEO
NORAD 15159·PAYLOAD·🇫🇷 France

Запущен Aug 4, 1984 с Guiana Space Centre

Loading…

TLE

СвежийSource: Space-Track

Эпоха: Sep 14, 2026, 15:00 UTC

1 15159U 84081B   26257.62540204 -.00000241  00000-0  00000-0 0  9995
2 15159  12.6637 333.3631 0032082  56.7106 338.2905  0.98397443119491

Отслеживайте TELECOM 1A в реальном времени с AllMySat

Download on the App Store